Zurück zum Katalog

YUNHAI 1-02

AktivWetterSSO
NORAD 44547·PAYLOAD·🇨🇳 China

Gestartet Sep 25, 2019 von Jiuquan Satellite Launch Center

Loading…

Nächste Überflüge (nächste 24 Stunden)

TLE

AktuellSource: Space-Track

Epoche: Sep 14, 2026, 14:19 UTC

1 44547U 19063A   26257.59721491  .00000211  00000-0  93392-4 0  9997
2 44547  98.4147 265.4542 0004931 252.6583 107.4062 14.32598479364673

Verfolge YUNHAI 1-02 in Echtzeit mit AllMySat

Download on the App Store